Theta_e
308 308 308 308 307 307 310 313 314 311 309 307 304 304 302 300 296 292 292 295 296 301 300 300 304 306 305 305 305 305 302 305 307 301 299 298 298 304 306 304 304 304 304 303 302 300 301 302 303 306 308 308 307 306 305 304 304 305 306 307 308 307 306 306 308 310 311 313 312 310 309 308 309 309
309 309 308 308 308 308 309 310 310 309 308 307 306 304 303 300 298 294 294 295 297 298 300 298 300 304 306 306 306 304 302 307 308 302 299 298 297 305 304 303 301 301 302 302 301 300 300 301 304 306 305 304 303 303 303 302 303 304 305 305 307 307 306 305 307 309 310 310 310 309 308 308 308 308
309 309 309 309 308 308 309 310 310 310 309 308 308 305 304 302 300 299 298 296 299 299 300 299 300 304 306 308 305 306 305 308 309 305 300 299 302 306 304 303 302 302 302 301 300 301 300 301 302 303 305 306 304 304 304 303 304 304 303 303 305 306 305 305 306 308 309 309 309 308 307 307 308 308
308 308 309 308 308 307 308 309 309 308 308 309 309 307 305 303 302 302 300 298 299 301 297 298 299 304 306 307 306 305 306 307 312 306 302 300 306 303 299 303 302 302 301 301 300 303 305 303 301 302 303 304 304 303 302 303 304 302 302 302 304 305 304 304 305 306 308 307 307 307 306 306 307 307
308 309 308 308 308 307 307 306 307 308 308 308 308 307 305 304 304 303 300 299 299 302 302 300 299 302 304 303 303 303 303 302 305 308 303 301 299 298 297 298 302 302 301 301 301 301 302 301 301 299 299 299 300 301 301 302 303 300 300 301 303 302 303 304 303 305 306 307 306 306 305 305 306 307
309 306 307 307 306 307 307 306 306 306 307 308 307 306 306 305 304 304 301 299 298 298 302 301 302 301 300 301 298 298 298 298 299 302 303 300 298 298 296 296 297 301 302 301 301 301 301 301 301 300 299 299 299 301 300 300 300 300 298 297 302 303 302 302 302 304 305 306 305 305 305 305 306 306
306 306 306 306 306 308 307 305 305 305 306 308 308 306 306 305 305 305 304 302 299 299 300 300 300 301 302 299 299 299 299 301 302 298 301 300 299 301 297 295 296 299 301 301 300 300 301 301 301 300 300 300 300 300 300 299 300 299 298 297 299 301 302 301 301 302 302 304 304 304 304 304 305 306
306 305 305 305 305 306 306 305 305 306 306 306 305 305 305 306 306 305 304 304 300 299 300 301 301 301 301 301 302 301 302 302 302 301 300 301 300 300 301 297 296 298 300 301 300 301 302 301 301 301 301 301 301 301 300 300 299 299 298 298 298 298 300 300 299 300 301 302 302 303 301 303 305 307
306 305 304 306 305 305 307 305 306 306 306 308 307 305 305 305 307 308 305 304 302 301 300 301 302 301 301 302 302 301 301 302 303 303 302 301 300 299 300 301 301 302 302 301 301 300 300 300 301 301 301 301 301 301 301 301 300 300 299 298 298 298 298 300 301 301 301 301 301 300 300 301 304 306
306 305 305 306 306 306 307 307 307 307 307 307 307 306 306 307 306 306 305 304 303 302 301 301 301 302 302 302 302 302 300 302 303 303 303 303 303 302 302 303 306 303 301 300 302 302 302 302 302 302 302 301 301 301 301 301 301 300 300 299 299 298 298 298 299 300 298 299 300 299 298 298 302 305
307 306 306 307 307 307 307 309 308 308 306 308 306 307 306 306 306 306 304 304 304 302 301 301 301 300 302 301 302 304 301 303 302 303 301 301 302 300 300 302 304 303 303 302 301 301 300 302 302 302 301 301 302 302 301 302 301 300 299 297 296 296 296 296 297 299 300 301 300 297 295 295 297 299
308 307 308 308 308 308 309 309 308 309 308 307 306 307 308 306 305 305 304 303 303 302 302 301 300 300 300 302 302 303 302 302 301 302 299 299 299 300 300 299 300 301 301 300 301 302 301 301 301 301 301 301 302 302 302 302 302 301 299 296 296 297 296 296 296 297 298 300 299 296 294 295 297 297
308 309 309 308 309 311 315 310 309 309 310 309 308 306 305 305 305 303 303 304 302 302 301 301 300 299 301 299 299 300 300 298 299 299 298 297 298 297 299 300 300 300 298 298 297 299 300 299 299 299 299 301 303 301 301 301 301 299 298 298 298 298 298 298 298 298 298 299 299 297 295 295 296 295
310 311 310 311 316 314 313 308 305 305 306 309 311 310 307 307 306 304 303 302 303 303 302 301 300 299 298 298 299 298 298 298 298 297 296 295 296 293 295 296 297 300 298 297 296 298 300 299 298 298 298 300 300 299 297 298 299 298 298 299 299 298 297 297 298 298 298 298 298 297 296 295 294 294
311 310 309 309 314 312 312 308 300 301 302 303 304 305 307 309 308 305 303 303 303 303 303 301 298 297 297 298 298 297 298 297 296 295 295 296 295 293 293 293 295 297 298 295 294 296 297 298 298 297 298 298 298 298 297 298 299 298 298 298 298 298 298 298 298 297 296 296 296 296 296 296 295 295
311 311 310 308 309 308 309 307 303 300 297 296 296 297 297 298 300 303 306 305 303 301 302 300 299 298 298 298 297 297 295 296 296 295 295 293 294 291 291 291 291 295 297 294 292 294 295 296 296 295 297 297 297 297 297 298 297 297 297 297 297 297 297 298 298 297 297 297 296 296 296 297 296 295
312 311 310 310 311 311 313 312 305 302 299 295 294 294 294 295 294 294 297 300 307 305 304 302 300 299 298 298 298 298 296 295 296 293 294 292 291 291 291 290 289 293 295 292 290 292 292 292 292 292 295 295 295 296 296 297 297 297 297 297 297 296 296 297 297 296 296 296 296 296 297 297 297 297
312 312 311 310 310 309 310 310 307 304 301 298 297 297 296 295 296 295 295 295 298 302 306 305 304 303 301 301 298 299 297 297 294 293 292 292 291 290 292 292 293 293 296 293 291 288 289 291 290 290 293 294 294 294 295 296 297 296 296 296 296 296 296 296 295 295 295 295 295 295 296 296 296 296
311 311 311 310 309 307 308 308 309 306 301 299 299 297 297 297 296 295 296 298 300 300 303 304 305 304 301 301 300 298 296 298 296 294 292 292 291 292 291 289 290 291 293 291 290 289 288 287 289 290 291 293 292 292 294 296 296 296 296 295 295 295 295 295 294 294 295 295 295 295 294 295 294 294
309 309 310 310 309 308 308 306 302 303 302 302 301 300 297 294 292 293 294 292 293 300 302 304 303 300 299 297 298 297 296 295 295 294 293 292 290 289 288 290 288 289 291 291 288 287 286 287 289 289 290 289 290 290 290 294 296 295 295 295 295 295 294 294 294 294 294 294 294 294 294 294 293 293
310 309 309 309 308 307 308 302 298 298 301 304 303 300 297 295 294 293 293 292 292 294 294 294 294 294 293 293 294 293 294 294 293 291 291 289 286 287 286 287 286 288 288 290 289 287 287 287 287 288 289 289 289 289 289 290 295 295 295 294 294 294 294 294 293 293 294 294 294 294 294 294 294 294
309 310 310 311 309 307 306 298 296 296 302 307 305 301 297 294 293 292 293 293 292 292 292 291 291 292 292 292 292 292 292 293 293 290 290 290 287 288 287 286 285 287 288 290 290 288 286 286 286 286 287 287 286 288 288 290 292 294 293 293 294 294 294 293 292 293 294 294 294 294 294 294 294 291
308 307 308 308 308 307 304 295 295 295 302 309 305 302 300 298 295 294 292 291 290 290 291 291 291 290 292 292 290 291 293 294 295 292 292 289 289 288 287 286 285 284 285 288 290 288 284 286 286 285 285 282 284 285 288 290 290 290 290 290 291 293 293 292 292 293 293 294 294 294 294 294 293 291
305 304 306 302 297 296 296 294 294 295 298 308 306 302 301 300 298 295 293 292 292 292 294 292 293 292 291 291 290 289 290 293 295 292 292 291 291 290 287 288 285 285 284 288 290 287 285 284 286 285 285 283 280 283 286 288 288 290 289 289 288 292 292 292 292 292 293 293 293 293 294 294 294 291
306 303 303 299 295 294 294 295 294 293 294 299 303 303 303 303 301 295 294 294 294 294 294 294 294 295 293 291 290 290 289 290 290 290 290 290 290 290 288 285 285 285 284 286 292 288 286 285 285 283 284 283 284 285 284 285 288 288 289 288 289 289 289 290 291 290 291 292 292 293 292 293 294 292
303 303 301 297 294 292 293 293 294 294 294 295 304 303 298 294 292 296 296 296 296 296 294 293 292 291 290 290 292 292 291 291 290 288 288 289 289 289 288 287 285 284 287 288 292 287 286 284 284 284 283 283 283 283 285 284 286 287 286 288 288 289 289 289 288 288 289 289 290 290 290 292 293 293
304 300 297 296 294 292 293 293 293 294 295 296 302 296 293 292 293 295 297 296 295 294 293 291 290 288 290 291 289 290 289 289 289 290 289 290 290 291 291 288 287 288 288 286 292 288 286 285 285 285 284 283 283 283 282 283 285 285 287 287 288 289 289 287 287 288 289 288 290 291 291 291 291 291
301 296 295 294 291 291 292 292 292 293 294 298 294 292 293 292 294 297 295 294 294 290 290 290 290 289 288 289 289 289 290 289 289 289 289 289 289 288 288 287 289 289 288 288 288 286 286 286 285 286 285 284 284 284 285 285 285 285 286 288 288 288 289 288 288 289 289 288 288 289 288 288 289 290
300 296 293 291 290 290 290 290 289 290 290 290 290 291 291 295 296 295 294 292 291 291 290 290 290 289 288 290 290 289 289 289 288 288 288 288 287 287 286 287 286 286 288 289 287 286 286 286 285 285 284 285 285 286 286 285 284 285 286 287 287 287 288 289 287 286 288 288 287 288 287 287 288 288
294 292 291 290 289 289 289 291 292 291 291 290 291 291 294 296 295 294 293 292 291 290 290 290 290 289 289 289 289 289 288 288 287 286 286 287 286 285 286 286 286 285 285 286 286 286 286 286 286 286 285 286 286 286 285 285 285 286 286 285 287 288 286 286 287 287 287 288 288 288 289 288 288 288
295 292 291 290 289 290 290 291 291 291 290 292 294 295 295 294 294 294 293 292 291 290 290 289 290 290 290 289 288 287 288 287 287 287 287 285 284 284 283 283 283 284 286 285 286 287 287 287 287 287 285 286 287 285 286 286 285 285 286 286 285 283 287 288 288 287 287 288 289 287 287 286 287 289
295 292 290 290 291 292 291 291 291 290 290 291 290 290 289 288 289 291 292 291 291 290 291 290 289 288 289 288 287 287 287 286 286 286 285 285 284 283 283 282 282 282 283 284 286 287 288 288 287 287 288 288 287 287 287 285 285 285 285 286 286 286 287 286 287 288 288 287 287 285 285 286 286 287
292 291 291 290 290 289 288 287 288 287 288 287 288 289 288 289 290 290 290 290 290 289 289 288 288 287 286 285 285 285 285 285 285 283 285 282 284 282 282 282 282 282 282 282 284 286 285 287 287 286 287 288 288 287 285 284 284 285 284 285 285 285 286 286 286 288 287 286 285 285 285 286 287 287
290 289 289 289 289 288 287 287 287 287 287 287 287 286 287 288 288 288 289 289 288 287 287 287 287 286 285 284 283 284 284 283 283 283 285 284 282 281 281 281 281 281 282 283 284 284 285 286 286 287 286 285 287 287 287 285 284 286 285 284 284 285 286 287 287 286 286 284 285 284 284 285 286 287
288 288 289 289 288 288 287 287 287 287 287 287 287 285 284 286 286 287 288 287 286 287 287 286 286 285 285 283 283 284 282 284 283 282 281 281 281 282 282 282 283 282 282 282 282 283 284 285 285 285 285 285 286 287 290 289 287 286 286 285 286 285 285 286 286 286 285 284 284 284 284 284 284 287
287 287 288 288 287 287 286 286 287 288 289 288 287 286 286 286 286 287 287 287 288 287 287 286 284 284 285 284 283 283 281 281 282 282 280 280 281 282 282 282 282 282 281 283 284 285 284 285 285 284 284 284 284 284 285 291 291 289 286 285 285 285 284 285 285 285 284 284 284 284 284 284 285 287
287 286 285 285 286 286 285 286 287 288 288 288 287 287 287 287 286 287 287 287 288 287 286 285 285 285 284 283 281 281 281 281 279 280 279 281 282 281 281 281 281 282 282 284 285 286 285 285 285 285 284 284 283 282 284 287 288 290 289 286 285 285 285 284 284 284 285 285 285 285 285 285 285 286
288 287 287 288 288 287 287 287 287 287 287 287 288 287 288 287 287 287 287 288 287 286 285 285 284 284 283 282 282 280 280 280 280 281 280 280 279 279 280 281 281 281 281 283 284 285 285 285 285 285 285 283 282 283 283 286 287 287 290 289 286 286 285 284 284 285 286 286 284 285 285 285 285 285
289 288 288 288 288 288 287 287 288 288 288 288 288 287 287 286 286 287 287 287 286 285 285 284 283 282 283 282 282 282 282 281 280 280 279 279 280 280 280 280 282 283 282 282 284 285 285 285 285 285 285 284 284 284 285 284 285 287 289 290 289 286 284 284 285 286 286 286 285 284 284 286 288 288
290 290 290 289 289 289 288 288 288 289 288 288 288 288 287 286 287 287 287 286 286 285 285 283 282 283 282 282 282 282 282 282 281 279 279 279 279 279 280 281 282 283 283 282 283 284 285 285 286 286 286 286 286 287 286 286 285 285 286 287 289 288 286 286 285 286 286 284 283 281 281 284 284 286
289 290 290 291 290 290 288 288 289 288 289 288 288 287 287 287 287 287 286 286 286 285 283 282 283 282 282 282 283 283 281 279 279 278 278 278 280 282 283 284 283 283 282 283 283 283 284 286 287 287 286 286 285 285 284 283 284 285 286 286 286 288 288 288 287 286 284 283 282 281 281 282 282 283
289 290 291 291 291 290 290 289 289 289 288 288 287 286 286 287 287 287 286 286 285 284 283 283 282 282 281 281 281 281 280 278 277 278 279 280 281 282 284 284 283 283 281 282 283 284 286 287 287 286 286 284 284 284 284 284 284 285 286 286 283 286 288 288 288 287 284 281 282 282 283 283 282 281
289 290 291 291 291 291 291 290 290 288 287 287 287 287 287 287 287 286 285 285 283 283 282 281 280 280 279 278 278 278 278 277 276 278 279 281 281 282 284 284 283 283 283 284 285 285 286 286 285 284 283 282 284 285 284 285 285 285 285 285 286 285 285 287 287 287 287 287 286 285 284 283 281 281
290 290 290 290 290 290 291 290 289 288 288 287 287 287 287 287 286 285 285 283 283 282 281 281 279 279 277 275 275 274 276 276 275 277 278 280 283 284 284 284 284 284 284 285 285 286 286 285 285 284 283 284 285 285 285 285 284 283 284 285 285 285 285 285 285 285 285 285 286 286 286 286 286 285
290 290 290 289 289 288 288 288 287 287 287 287 287 286 286 285 284 284 283 282 281 281 281 280 279 276 276 277 278 279 277 281 278 276 279 283 284 284 284 284 284 285 285 285 284 285 286 285 286 284 284 285 285 285 285 285 285 284 283 283 284 285 285 284 284 282 280 279 284 286 286 286 286 286
Wind_Speed
5 4 5 5 4 3 5 7 7 7 6 6 6 7 10 9 9 5 3 3 3 4 2 3 4 4 4 4 3 3 4 5 5 3 3 3 2 2 2 2 2 3 3 2 2 2 3 5 6 6 6 6 6 6 6 6 7 7 8 9 9 9 9 9 7 8 9 10 11 11 11 12 12 13
4 4 4 4 6 3 5 6 6 7 7 7 7 6 4 8 10 7 7 5 2 4 3 2 3 4 5 4 3 4 5 6 6 3 3 3 3 3 3 2 2 2 2 2 1 1 1 1 3 4 5 6 5 5 5 5 5 6 6 6 7 8 8 8 8 7 7 8 9 10 10 10 11 12
5 5 5 5 5 4 7 7 7 6 6 7 7 6 5 3 7 8 6 5 3 3 5 3 2 6 6 5 4 4 5 6 7 4 3 3 3 3 2 4 3 3 3 3 3 3 3 3 1 1 2 4 4 4 3 4 3 3 3 4 4 5 6 6 6 6 7 8 8 9 9 10 11 12
4 5 5 4 4 4 5 6 6 5 4 5 6 6 6 4 4 7 5 6 6 4 5 4 4 6 7 6 5 5 5 5 8 4 4 3 4 3 2 4 5 5 5 4 3 4 4 4 4 2 1 1 3 3 3 4 4 3 1 1 1 2 3 3 4 5 6 6 6 6 7 8 9 10
4 4 4 4 3 2 6 5 5 5 4 5 6 7 7 6 5 7 5 7 4 0 1 3 5 6 5 5 6 6 6 5 5 4 2 2 3 3 3 3 6 7 6 6 5 5 5 5 5 4 2 2 2 3 4 4 5 5 4 3 3 1 1 2 3 4 5 6 5 5 5 7 8 10
4 4 5 4 4 3 5 4 4 5 4 6 6 7 8 7 6 4 5 3 5 4 1 1 0 3 4 6 5 7 6 7 4 3 3 2 3 4 4 5 5 9 8 7 6 6 6 6 6 5 5 4 4 4 4 5 5 5 6 5 4 3 2 2 3 4 5 5 6 5 6 7 8 9
4 5 5 4 3 3 6 4 4 3 3 3 6 4 4 7 6 4 5 6 4 6 4 3 4 4 4 6 6 6 6 0 1 4 5 5 5 4 4 5 4 8 9 9 7 6 6 6 6 6 6 7 6 6 6 6 6 6 6 6 6 4 3 2 4 3 5 6 7 7 7 8 9 10
4 5 5 3 4 5 5 4 4 4 4 4 4 4 3 4 5 4 4 5 5 4 6 4 6 5 5 6 4 3 2 4 5 5 4 3 4 4 4 4 5 7 9 8 7 6 5 5 5 6 8 8 8 7 7 7 7 8 8 7 6 5 4 4 4 3 4 5 6 8 9 8 9 10
5 4 5 4 4 5 6 4 4 4 5 4 4 3 2 3 4 3 4 3 3 5 6 5 4 2 3 2 2 3 5 1 2 1 2 3 5 3 3 3 4 3 3 4 4 5 7 5 5 6 7 7 7 8 8 8 7 8 9 8 7 7 6 4 3 3 3 4 4 7 8 9 8 8
4 5 5 4 4 5 6 5 4 4 5 4 5 5 3 3 3 4 3 2 4 6 6 6 4 1 3 2 2 3 4 6 3 2 2 3 2 1 1 1 1 2 2 1 0 1 1 4 4 7 9 11 11 11 10 9 8 5 7 9 9 8 7 5 4 4 5 4 3 4 6 8 9 7
5 5 5 5 5 5 5 6 6 5 5 5 5 6 6 4 4 5 4 3 4 4 4 2 2 4 4 2 3 1 3 3 4 5 3 1 2 2 2 4 3 3 3 2 4 3 4 8 7 10 11 12 12 14 13 12 12 10 6 7 9 8 7 6 6 6 7 6 2 3 6 8 11 9
6 6 6 6 6 5 5 6 6 6 6 4 5 4 5 5 5 5 4 4 4 4 4 3 4 1 2 1 1 1 2 2 0 1 3 5 1 2 4 3 3 2 3 5 5 6 8 8 8 10 10 12 14 14 12 13 14 13 9 6 6 7 6 7 8 8 9 7 4 2 6 8 10 12
4 4 4 4 5 4 7 9 9 8 8 6 6 4 4 5 6 4 4 6 6 5 5 2 1 2 0 1 2 2 1 4 6 1 2 2 0 0 3 1 2 1 2 2 3 4 3 6 6 5 7 7 8 9 10 11 15 16 14 10 7 6 7 8 9 10 9 7 4 3 6 8 10 12
4 4 4 5 7 8 9 9 9 10 11 10 8 7 5 6 5 5 5 4 5 6 5 5 5 3 3 2 1 3 2 1 2 4 3 3 0 1 2 1 0 2 5 5 6 6 3 6 6 6 6 5 5 5 7 8 10 14 17 16 14 10 8 8 9 10 10 8 5 5 7 10 11 12
6 4 4 4 6 7 7 8 11 11 10 9 10 10 9 7 7 5 4 5 6 6 5 3 3 4 4 1 1 3 3 1 3 3 4 5 4 4 2 1 5 2 5 3 4 6 4 4 5 4 4 4 5 6 7 11 14 15 17 18 17 16 14 10 9 9 10 9 7 8 10 11 12 12
5 5 4 4 4 5 6 6 5 5 7 8 8 7 6 6 4 5 7 6 4 3 4 4 5 5 6 4 4 3 3 4 4 3 4 3 4 3 2 1 1 3 3 3 2 5 4 4 4 4 3 4 3 4 8 12 13 14 15 16 16 16 15 14 12 10 8 9 8 9 11 12 12 12
6 6 6 6 5 5 7 5 4 5 4 4 7 7 6 4 4 4 4 5 6 7 6 6 5 6 5 5 4 3 4 3 5 2 3 2 3 3 2 2 2 3 0 4 2 0 2 2 2 3 4 3 3 4 7 11 12 12 12 13 13 14 14 13 13 12 10 9 9 9 10 10 10 11
7 7 7 6 6 4 3 3 4 5 5 4 4 3 2 2 2 3 2 3 5 6 7 8 8 6 5 7 4 4 5 5 4 4 3 3 4 3 1 1 2 1 2 3 1 1 1 3 3 3 5 4 3 3 5 10 10 10 10 10 11 11 11 10 12 12 12 11 10 10 10 9 9 8
8 7 6 6 6 3 2 1 0 1 2 3 3 3 2 2 1 1 1 0 1 3 4 6 6 6 4 5 6 4 3 5 5 6 5 7 4 3 0 2 2 3 4 3 2 0 1 2 3 2 3 3 4 2 3 8 8 8 8 8 9 9 9 9 10 11 11 11 11 11 11 11 9 7
7 7 8 7 8 6 4 3 3 4 4 3 4 5 3 2 1 1 2 4 4 2 3 5 7 6 7 8 8 7 6 4 5 6 6 5 4 4 4 1 3 2 2 4 2 1 1 1 2 3 4 3 4 2 3 5 5 5 6 6 7 8 8 8 9 11 11 10 11 11 11 10 9 8
6 5 4 4 4 5 6 10 12 12 12 7 6 5 3 2 2 1 2 5 7 6 8 11 11 11 11 10 10 9 8 7 6 7 6 2 3 5 2 1 3 2 2 3 1 1 1 2 2 4 3 3 3 2 3 3 5 7 6 6 7 8 8 8 9 10 11 11 11 11 11 9 7 7
6 7 10 8 6 6 6 11 12 14 13 8 7 7 6 5 5 3 0 2 4 8 8 9 9 9 9 8 7 6 6 6 4 6 4 4 6 5 5 1 1 2 0 2 1 2 0 2 1 2 4 3 2 1 2 3 4 5 5 5 6 8 8 8 9 10 10 11 11 11 10 9 7 3
6 5 8 13 12 9 9 12 13 15 13 8 9 9 9 9 8 7 6 4 5 4 4 3 4 3 5 5 4 4 7 7 6 5 6 5 6 5 4 3 1 1 1 2 1 3 2 3 2 1 4 1 5 2 2 3 4 4 3 3 4 7 8 9 9 9 11 11 12 11 11 10 7 5
6 6 6 5 7 7 10 13 14 14 15 10 9 8 9 9 8 7 7 5 6 6 6 6 3 4 4 4 4 3 3 3 3 4 5 5 6 6 5 3 2 1 1 2 1 3 1 1 3 0 1 2 3 2 4 4 4 4 4 3 4 6 6 7 7 9 11 11 11 11 11 11 9 5
8 7 7 7 6 10 11 14 14 11 13 8 7 10 10 10 8 11 7 7 6 5 4 4 4 5 5 4 3 3 3 2 2 2 2 2 4 6 5 5 3 1 1 2 1 3 1 0 2 1 2 1 3 3 3 4 5 3 3 3 4 6 4 6 4 6 7 9 10 9 9 9 10 7
7 8 8 7 8 11 11 12 12 13 13 13 9 9 8 7 13 11 6 5 5 5 5 5 5 5 6 5 5 4 3 3 2 3 2 1 1 2 4 6 5 2 1 2 4 1 0 1 1 1 2 1 4 2 5 4 5 5 3 4 4 6 4 6 6 6 5 5 6 5 7 9 9 10
9 7 7 7 10 13 13 13 15 15 17 13 10 14 14 16 17 12 7 6 6 5 5 6 6 6 7 7 6 6 4 4 4 6 5 5 6 7 6 4 4 4 0 1 0 2 1 1 1 1 2 2 3 3 2 4 5 4 6 5 5 6 6 4 5 6 6 6 6 7 7 8 10 10
7 7 7 8 10 11 12 12 12 12 13 9 13 15 16 17 14 9 8 6 6 6 7 7 7 6 5 6 6 4 6 7 6 6 6 7 5 5 4 3 2 1 1 0 0 1 2 1 3 2 1 3 4 4 6 4 4 4 6 6 5 6 6 4 6 4 5 5 6 6 4 6 6 6
8 10 11 11 12 12 12 12 10 9 10 13 14 16 17 14 8 9 8 7 6 6 7 7 7 6 4 5 6 5 6 5 5 5 4 4 4 2 2 1 1 1 1 1 1 1 2 2 2 3 2 1 3 4 4 6 4 5 5 7 7 4 6 6 4 5 6 6 6 5 5 6 6 4
10 12 13 14 13 12 11 10 8 7 8 13 16 17 15 8 9 9 9 7 7 7 7 8 8 7 6 6 5 5 5 6 5 3 3 3 3 2 3 5 5 4 3 3 3 3 3 3 2 2 3 3 3 4 4 6 6 6 5 5 7 6 4 4 6 6 5 6 6 5 6 5 6 4
7 11 11 11 13 12 15 13 12 11 10 10 9 8 7 7 7 8 8 9 9 9 7 7 7 6 7 6 5 5 6 6 3 2 4 5 2 2 2 3 3 3 5 4 3 3 3 3 3 3 3 4 4 3 4 4 6 6 7 6 5 6 6 7 6 6 6 6 5 5 5 5 6 5
8 8 6 7 5 6 5 4 4 4 4 6 7 7 6 7 6 7 10 9 8 7 7 7 6 6 6 6 6 5 6 5 2 1 3 3 2 2 1 2 2 1 3 4 4 4 4 3 3 3 2 3 4 5 4 4 5 6 6 6 5 6 6 6 6 6 5 5 6 6 6 6 6 6
4 6 7 7 7 6 6 5 6 5 5 4 6 7 7 7 8 7 7 9 8 8 7 7 7 6 7 6 5 6 6 3 3 2 5 2 3 1 2 1 1 2 5 6 4 5 4 4 3 3 3 4 4 4 4 6 5 5 5 6 5 6 6 6 6 6 5 5 6 6 7 6 5 5
3 8 9 9 9 8 6 7 7 6 6 7 7 6 6 7 7 6 6 8 7 6 7 6 6 7 7 6 6 6 6 3 3 1 3 1 1 1 0 2 3 2 2 4 6 6 6 5 5 6 5 4 3 4 5 5 6 6 6 5 5 6 6 6 6 5 5 4 5 7 7 8 7 5
2 3 9 10 8 8 8 9 9 8 8 8 8 7 5 5 6 6 7 7 6 6 6 6 6 6 7 6 5 6 4 4 2 1 1 2 1 1 2 4 4 3 4 5 6 6 5 6 6 6 6 6 6 4 5 6 5 5 4 6 6 5 6 6 6 7 6 5 2 4 6 6 7 6
4 3 5 3 3 5 7 5 6 7 9 9 8 7 7 6 6 8 6 6 7 6 6 6 6 7 6 6 5 5 4 5 3 2 2 2 2 2 3 3 3 3 4 4 5 5 4 5 4 5 6 7 5 5 5 3 2 2 4 6 6 5 5 6 6 5 6 6 3 3 5 7 8 7
5 4 2 3 5 6 1 5 6 5 6 7 7 7 7 7 6 7 5 5 7 6 6 7 6 6 6 5 4 4 3 4 4 3 3 2 2 2 3 3 2 2 3 5 4 5 3 4 5 4 5 6 6 7 7 3 5 5 4 5 5 5 5 6 6 7 5 3 5 4 5 6 8 7
5 5 6 6 6 5 2 2 4 4 5 6 7 7 8 8 7 5 4 6 6 6 6 6 6 6 6 5 6 6 5 5 5 4 2 2 3 2 1 1 2 3 4 5 4 5 4 4 4 5 3 5 6 6 8 5 5 5 4 4 5 7 5 5 6 6 7 5 3 5 5 6 7 6
7 7 7 7 6 3 1 3 4 7 8 8 7 7 7 7 7 6 5 6 7 7 6 7 6 4 5 4 5 7 7 6 5 3 2 1 2 1 0 1 3 3 4 6 6 5 4 4 4 4 4 5 6 6 6 7 7 9 5 5 5 5 6 4 5 5 5 5 5 6 5 5 7 8
6 7 7 7 7 6 3 1 3 5 8 8 9 9 8 7 6 6 7 7 7 6 6 6 6 6 5 6 7 6 5 5 5 3 3 1 1 0 1 2 2 3 4 5 6 6 5 5 5 5 5 6 6 6 5 6 6 6 7 6 7 7 5 2 3 5 5 4 5 5 7 6 5 5
6 6 7 8 7 7 8 3 2 3 5 6 7 7 7 7 7 6 7 7 6 7 6 6 6 6 6 6 6 7 6 4 3 2 1 1 1 2 3 3 3 3 3 5 5 6 7 6 7 9 6 5 5 3 3 3 5 5 5 3 3 3 4 4 3 1 1 3 4 5 5 5 4 4
7 6 6 7 7 7 5 6 5 5 6 6 7 6 6 6 6 9 8 7 7 7 7 6 6 7 6 6 6 6 6 6 3 2 1 1 2 3 3 1 3 4 3 4 6 6 7 7 6 6 4 4 3 2 4 5 6 7 6 5 3 1 4 5 5 4 2 2 3 4 4 4 2 3
6 6 7 8 9 7 6 6 6 6 7 6 6 6 6 7 7 8 7 7 7 7 7 6 6 7 7 6 5 5 6 4 3 3 0 0 1 1 2 3 3 4 3 4 6 5 7 7 5 5 5 3 2 1 5 6 5 6 6 6 5 0 1 2 3 4 5 6 3 2 2 2 3 4
6 6 6 7 8 8 9 9 8 7 8 7 7 6 7 7 7 7 7 7 7 7 6 6 6 6 6 5 4 4 4 4 3 2 2 1 0 0 2 3 3 4 4 4 5 6 6 6 6 3 4 4 3 3 5 5 6 5 5 6 4 4 3 2 2 3 2 2 4 3 3 2 3 6
5 6 6 6 8 7 6 7 8 7 7 6 6 6 6 6 6 6 6 7 7 7 6 6 6 6 6 6 7 6 4 4 4 1 1 1 2 3 2 2 3 4 5 4 4 6 6 6 6 4 3 4 3 3 5 4 6 6 5 4 6 5 1 2 1 0 1 2 4 6 4 3 1 1
Wind_Direction
116 125 154 136 132 127 146 160 160 149 130 141 155 167 153 150 138 152 144 200 160 226 187 151 225 189 220 206 212 203 202 204 187 185 180 184 201 212 166 148 135 118 100 82 73 46 88 102 104 102 99 91 81 71 57 48 42 29 24 25 32 39 38 33 30 28 27 24 23 22 15 9 5 2
128 117 85 82 76 84 114 131 136 137 143 148 170 187 168 152 152 160 150 198 202 185 214 168 174 184 215 207 211 217 222 212 192 198 183 190 202 203 208 198 166 149 139 146 194 245 275 142 113 108 110 111 108 99 87 67 51 40 31 28 37 45 40 34 31 34 32 27 23 18 11 7 5 4
102 92 83 78 78 74 99 108 115 117 129 157 173 171 152 191 149 144 136 133 236 152 189 236 203 171 202 205 199 219 233 215 199 200 190 197 191 188 224 240 220 203 209 211 224 241 249 259 201 106 117 129 126 132 130 116 88 55 38 31 45 51 49 37 30 33 36 31 25 18 8 3 1 0
89 89 80 68 89 85 95 98 108 120 133 148 146 148 140 118 125 122 123 138 176 206 181 193 187 178 189 193 194 230 239 227 203 207 202 178 157 183 215 247 247 231 222 226 238 258 266 255 252 207 202 153 138 148 154 148 140 145 141 89 53 61 45 20 16 27 31 34 24 16 7 1 358 355
82 81 84 68 48 77 97 112 113 110 125 112 118 131 128 133 147 130 133 135 141 50 192 154 182 197 171 195 202 213 229 235 221 209 174 159 169 202 205 225 245 238 233 230 234 253 271 279 271 261 242 227 198 176 184 185 172 174 176 195 185 157 5 343 355 3 7 13 12 12 10 0 354 350
88 99 97 85 69 71 91 87 90 118 110 113 113 131 141 149 161 176 113 146 133 169 223 180 72 177 189 201 182 196 211 231 208 183 163 188 199 203 198 213 236 236 230 229 229 244 259 275 284 290 291 278 259 240 219 213 200 192 194 204 216 198 210 279 333 356 358 353 357 359 3 360 354 350
109 93 98 104 100 89 76 67 69 75 106 119 120 128 132 146 167 193 152 134 142 160 205 189 165 194 202 204 205 199 203 99 182 171 188 192 207 211 191 210 231 233 228 229 234 237 257 273 292 309 308 297 287 277 263 250 239 226 217 212 217 219 217 248 303 320 344 348 355 358 359 358 353 352
121 120 106 116 102 90 81 70 75 77 92 97 105 121 149 153 170 181 165 156 136 164 166 232 189 201 185 232 253 215 118 138 193 189 173 175 203 205 198 211 227 230 221 226 237 249 262 278 287 301 312 310 305 295 285 277 261 246 235 226 221 226 237 236 256 282 313 333 348 355 355 352 354 354
142 137 134 153 117 104 102 95 97 95 97 111 113 130 163 178 170 162 164 155 126 140 177 205 235 186 230 243 254 201 142 127 88 30 89 174 201 206 229 223 244 253 205 225 264 285 276 265 276 299 305 307 305 303 304 304 285 253 240 232 225 226 227 233 244 266 292 313 346 345 346 336 342 355
162 154 163 176 150 134 132 149 151 140 134 131 126 135 156 164 145 157 175 161 150 161 181 183 218 244 209 222 253 227 155 134 115 95 46 57 51 111 110 339 14 77 83 103 125 232 75 53 27 6 359 353 344 342 345 345 341 287 237 227 223 223 224 228 242 260 274 286 313 335 333 327 325 351
177 170 172 179 176 164 156 153 160 154 150 140 140 146 151 152 142 147 161 141 133 156 167 221 218 213 235 185 236 346 131 137 144 158 141 97 343 3 62 52 34 56 62 91 116 65 33 29 24 6 354 343 343 344 353 354 346 337 295 248 234 232 230 235 245 254 262 270 276 324 327 323 315 321
188 187 185 184 186 178 171 163 169 155 158 151 145 167 138 145 137 146 138 116 122 138 158 177 209 209 249 337 8 328 84 113 16 106 139 149 117 20 14 24 68 349 35 21 5 8 12 9 11 7 349 352 354 354 360 3 8 6 347 301 266 252 244 242 243 250 259 264 266 297 308 305 307 306
208 206 199 200 200 197 183 180 170 176 161 153 161 196 149 137 135 142 146 149 138 130 132 136 55 80 52 278 169 157 164 182 191 195 103 120 204 333 83 41 12 55 51 12 24 10 20 1 359 0 360 0 1 6 10 12 10 10 8 354 315 279 259 250 252 259 266 277 284 279 289 297 296 297
210 205 198 205 205 197 184 181 187 180 170 172 166 183 176 162 153 160 152 160 160 151 150 175 154 137 185 253 223 166 212 188 146 95 88 109 283 66 50 319 284 332 42 22 8 337 12 20 353 23 18 354 10 13 23 15 24 22 19 14 4 342 308 283 275 276 282 294 298 270 276 282 282 282
204 212 207 199 195 183 177 181 182 172 168 171 182 182 188 179 167 164 173 189 169 167 171 174 152 161 181 248 225 152 139 105 129 132 124 119 83 88 79 338 308 354 40 31 25 340 349 36 12 1 21 359 7 19 22 25 36 37 35 30 24 17 6 345 315 300 299 304 305 286 277 274 273 275
194 200 204 219 202 196 187 179 175 148 135 139 139 136 133 129 140 170 169 182 198 168 149 167 189 158 178 175 155 159 122 127 82 82 99 104 114 95 83 165 239 269 37 57 50 321 324 21 58 44 6 1 360 15 27 36 44 43 39 34 29 25 23 20 13 357 333 320 307 296 292 287 278 271
201 194 196 205 217 215 211 191 170 159 141 121 130 134 126 111 118 126 158 184 185 173 166 170 186 182 169 159 201 196 161 143 116 119 78 89 105 134 150 214 250 307 331 96 86 347 314 18 53 35 339 351 343 14 31 44 47 44 39 35 30 24 21 19 13 9 1 350 337 324 314 306 296 284
202 203 196 199 211 234 228 218 191 172 158 150 135 127 114 119 94 95 96 116 150 173 178 170 183 207 168 165 178 178 144 122 144 130 156 149 129 152 169 203 208 267 336 94 127 31 316 3 47 14 324 340 333 23 36 49 45 44 37 34 30 24 20 14 6 358 354 350 347 341 337 335 331 317
194 196 186 187 195 177 158 160 124 268 185 137 123 108 93 74 39 33 31 10 142 150 151 167 153 147 152 138 143 157 163 148 168 164 170 177 169 151 9 52 351 37 21 59 89 292 266 316 36 323 298 319 323 20 7 45 43 39 33 29 27 20 12 5 356 350 346 343 341 344 348 348 353 345
198 190 186 186 191 183 170 201 190 156 121 144 149 150 144 110 25 11 332 301 284 266 168 145 141 141 146 146 148 156 153 128 106 88 78 71 64 81 63 106 318 47 336 37 77 95 289 282 51 321 305 346 331 343 353 356 23 27 28 21 15 11 2 354 343 338 337 334 334 339 343 346 348 345
207 204 208 222 211 184 191 177 176 168 160 176 180 150 130 118 94 14 345 14 57 109 125 123 126 135 143 149 151 149 149 140 133 105 91 110 123 87 80 353 15 344 350 348 67 148 346 336 50 320 297 309 302 340 328 311 348 356 2 4 356 352 348 342 332 328 327 327 330 334 337 344 346 344
230 217 211 215 235 225 205 191 190 180 176 182 179 155 152 150 163 203 302 35 48 62 78 97 117 139 149 132 114 112 111 129 145 113 136 181 111 104 119 158 215 269 355 327 290 66 271 306 23 352 300 342 297 271 303 350 320 318 323 328 327 329 329 324 322 323 321 323 328 330 334 336 343 341
224 226 219 217 217 213 204 194 197 191 187 185 173 173 168 173 179 181 181 164 124 112 110 93 107 92 82 87 97 97 103 101 96 111 137 142 111 132 157 161 141 17 316 310 346 58 305 33 311 87 355 326 284 257 287 306 297 302 306 304 314 311 315 317 318 319 319 323 328 330 331 332 344 333
228 222 225 210 198 195 190 196 199 198 192 188 188 163 174 171 195 178 174 191 159 165 162 166 142 128 100 95 92 91 89 86 100 120 133 135 127 134 152 169 151 147 227 303 41 80 283 94 313 153 212 282 296 288 324 302 287 293 295 305 316 305 315 317 316 314 317 322 324 326 329 330 336 333
221 215 223 216 193 191 203 213 212 208 216 216 149 170 182 200 178 153 166 188 189 162 153 137 125 99 93 88 89 94 95 88 94 90 92 115 129 137 141 124 103 124 247 254 330 95 308 216 275 333 312 192 251 301 277 292 292 292 280 294 304 303 311 304 304 307 311 317 318 321 321 321 321 322
221 216 214 214 201 193 197 204 208 206 202 199 165 185 176 122 134 158 156 153 158 141 128 109 77 72 77 82 90 98 100 86 62 68 80 98 128 95 120 127 127 116 10 302 55 111 108 320 222 266 259 303 287 265 307 299 280 289 308 307 286 281 289 291 304 301 304 301 309 311 303 305 310 316
221 205 204 208 197 196 194 196 198 199 198 188 184 172 155 158 159 147 144 146 143 127 111 101 104 110 122 114 117 115 110 95 85 73 67 70 68 58 55 70 103 129 172 277 309 173 149 251 243 331 287 267 295 296 283 305 312 308 319 298 297 290 284 278 286 293 294 300 303 310 313 314 318 321
202 191 200 193 187 190 188 188 189 194 182 178 179 167 162 157 154 136 135 143 140 126 114 113 114 115 120 111 100 86 84 90 92 81 65 62 66 79 68 58 56 84 182 213 187 128 107 118 320 309 277 283 301 305 307 276 281 293 299 302 289 281 284 290 293 292 295 299 304 309 325 318 311 317
201 196 183 172 171 171 164 155 147 148 158 157 155 155 150 149 137 139 136 144 134 119 121 123 120 120 112 111 115 113 101 96 78 73 53 54 47 43 76 88 89 358 321 330 6 51 79 80 339 313 331 273 299 290 295 287 298 304 311 318 319 313 310 292 281 285 295 301 296 302 298 296 299 301
189 176 172 169 162 154 149 145 150 150 157 150 145 144 143 137 139 137 140 140 132 130 135 130 127 126 119 107 113 107 100 90 97 106 102 97 41 39 53 39 2 339 343 343 359 19 21 21 353 340 328 311 300 292 290 306 308 297 304 297 286 306 280 300 307 298 300 299 298 297 294 293 285 297
180 176 170 170 173 170 169 160 154 146 147 133 131 132 135 136 137 146 152 150 136 138 126 121 117 121 121 122 104 98 100 100 108 132 126 104 58 43 43 71 359 340 324 331 337 352 355 355 349 11 354 315 310 291 284 289 293 302 300 292 307 303 302 314 306 304 298 295 299 303 304 306 300 289
179 164 159 150 151 139 135 132 117 123 135 135 131 122 118 116 115 112 108 100 110 113 120 116 117 114 117 104 108 103 100 113 112 66 85 95 57 32 62 50 317 281 318 331 341 333 343 340 339 329 311 296 302 302 310 299 285 284 287 293 299 290 295 295 301 301 306 318 317 310 296 290 297 304
127 136 146 155 154 161 155 145 145 133 120 112 118 122 119 121 123 128 129 126 125 130 123 128 126 123 105 108 111 113 103 106 97 46 77 44 108 27 71 122 280 346 358 341 334 327 329 324 326 323 318 311 293 290 302 311 292 279 285 296 309 303 300 303 308 310 323 329 307 302 308 304 296 294
214 172 163 170 169 165 164 161 157 156 149 136 124 117 118 116 113 114 117 117 124 118 119 128 119 117 112 116 120 105 109 82 43 6 115 173 158 114 153 57 356 346 16 340 339 332 332 332 339 332 333 317 286 269 253 241 269 287 295 303 306 305 300 306 310 307 309 286 290 308 309 311 306 297
310 252 181 180 182 180 170 166 162 158 152 143 134 128 113 113 120 122 114 115 116 115 114 112 109 109 113 123 113 112 120 126 151 77 33 89 62 96 83 58 18 7 3 348 330 317 336 327 340 336 331 339 342 315 248 223 238 286 313 311 296 295 300 305 311 313 316 310 307 302 299 293 298 295
164 326 326 291 214 181 178 164 151 153 146 141 134 133 123 126 120 111 115 133 118 121 115 111 101 103 112 125 133 132 144 143 126 88 57 44 77 48 49 45 25 360 353 323 309 313 333 323 340 335 325 326 328 314 321 300 224 242 307 294 297 296 294 307 308 301 309 312 318 301 301 301 301 305
156 137 118 49 11 356 347 135 135 138 133 131 130 131 128 121 111 122 135 135 112 113 115 107 109 122 127 126 136 142 115 106 97 99 106 97 80 78 60 2 356 349 329 301 306 310 330 325 324 320 316 313 314 308 301 299 292 279 272 273 286 289 298 310 312 313 302 288 306 302 286 295 294 304
160 142 138 143 145 165 189 139 132 126 116 124 125 119 115 117 117 123 140 116 112 100 97 109 123 128 137 142 128 100 91 96 108 112 131 110 90 57 107 43 320 321 312 303 315 310 316 308 302 300 296 299 301 302 308 314 314 296 227 256 284 295 311 311 310 312 315 324 298 299 304 293 294 306
147 149 146 143 133 118 185 230 173 148 141 129 119 115 113 115 129 139 129 116 109 110 115 118 129 125 114 106 108 121 118 115 110 127 130 148 149 135 303 344 339 319 339 326 321 314 316 305 290 283 268 282 292 291 297 305 298 298 289 241 259 281 281 271 292 304 304 314 323 308 275 261 270 278
164 151 150 142 138 119 94 284 239 155 138 137 132 133 136 139 144 139 124 121 118 120 112 112 110 109 106 110 108 102 104 124 143 160 164 186 227 217 303 351 339 322 332 318 317 313 312 296 284 277 278 267 267 272 275 269 274 276 282 289 246 227 255 275 279 297 303 323 319 327 323 333 352 348
155 152 150 143 138 137 135 157 237 123 104 108 120 131 136 145 135 133 128 125 121 110 107 117 120 118 124 121 122 123 126 144 142 174 206 220 280 350 356 11 335 329 335 307 306 306 297 284 283 287 282 273 276 300 298 296 292 297 301 282 332 328 277 236 238 266 300 317 326 310 311 324 324 334
154 148 136 122 118 114 120 146 181 156 135 138 140 142 148 139 131 115 108 102 101 110 117 123 124 122 126 128 128 125 129 149 176 202 229 45 5 338 331 3 320 314 324 300 295 288 285 294 299 300 297 307 321 334 291 292 295 303 298 307 308 354 40 75 80 95 79 22 350 335 322 322 346 341
147 145 138 138 135 145 156 158 150 148 142 139 141 143 133 118 112 104 103 108 116 117 124 125 129 126 129 133 132 132 138 158 167 184 228 220 227 279 314 309 301 290 283 284 285 284 290 295 302 309 314 314 254 226 279 285 286 287 296 305 309 36 35 55 109 92 64 49 17 291 294 308 334 334
134 135 140 140 134 155 159 148 148 153 145 144 140 131 122 121 113 117 125 130 127 130 132 130 127 124 131 135 128 122 137 168 183 174 216 241 65 244 291 302 303 298 301 292 300 304 304 308 306 309 316 310 297 289 286 292 289 276 276 281 298 302 254 210 276 281 297 1 12 16 5 311 265 289
123 120 117 120 128 136 133 129 132 128 117 113 114 111 105 102 114 119 118 122 126 129 129 129 126 127 133 134 129 135 177 188 187 215 52 16 339 328 307 289 299 302 298 296 304 305 309 310 307 313 272 285 272 260 279 273 278 296 289 294 296 293 251 158 191 10 1 322 340 9 22 27 38 228